Radiation Dose at Monitoring Post of Fukushima Daini Nuclear Power Station
Date,Time,MP-1(microSv/h),MP-2(microSv/h),MP-3(microSv/h),MP-4(microSv/h),MP-5(microSv/h),MP-6(microSv/h),MP-7(microSv/h),Wind Direction,Wind Velocity(m/s),Rain
2018/05/10,00:00,0.301,0.190,0.308,0.293,0.291,0.152,0.093,north-northwest,7.0,No
2018/05/10,00:10,0.305,0.189,0.307,0.293,0.294,0.152,0.093,north-northwest,6.5,No
2018/05/10,00:20,0.304,0.190,0.308,0.292,0.291,0.153,0.094,north-northwest,7.8,No
2018/05/10,00:30,0.302,0.190,0.307,0.293,0.292,0.153,0.094,north-northwest,7.6,No
2018/05/10,00:40,0.304,0.190,0.307,0.293,0.293,0.154,0.093,north,7.3,No
2018/05/10,00:50,0.304,0.190,0.307,0.292,0.292,0.154,0.094,north,7.1,No
2018/05/10,01:00,0.302,0.191,0.308,0.294,0.292,0.153,0.093,north-northwest,7.5,No
2018/05/10,01:10,0.303,0.189,0.307,0.294,0.295,0.153,0.093,north-northwest,6.7,No
2018/05/10,01:20,0.302,0.189,0.306,0.293,0.292,0.153,0.094,north-northwest,7.1,No
2018/05/10,01:30,0.303,0.191,0.308,0.294,0.294,0.153,0.093,north-northwest,6.0,No
2018/05/10,01:40,0.303,0.189,0.308,0.294,0.295,0.153,0.093,north-northwest,5.8,No
2018/05/10,01:50,0.303,0.189,0.305,0.293,0.294,0.153,0.094,north-northwest,6.5,No
2018/05/10,02:00,0.303,0.190,0.308,0.294,0.295,0.153,0.094,north-northwest,6.9,No
2018/05/10,02:10,0.304,0.190,0.307,0.292,0.292,0.153,0.093,north,7.1,No
2018/05/10,02:20,0.302,0.190,0.307,0.294,0.293,0.154,0.093,north-northwest,7.5,No
2018/05/10,02:30,0.302,0.190,0.308,0.292,0.294,0.153,0.094,north-northwest,7.0,No
2018/05/10,02:40,0.303,0.189,0.307,0.294,0.293,0.153,0.093,north-northwest,7.0,No
2018/05/10,02:50,0.302,0.190,0.306,0.293,0.292,0.153,0.093,north-northwest,6.3,No
2018/05/10,03:00,0.303,0.190,0.309,0.293,0.294,0.154,0.094,north-northwest,6.9,No
2018/05/10,03:10,0.304,0.189,0.308,0.292,0.292,0.153,0.094,north-northwest,7.0,No
2018/05/10,03:20,0.302,0.191,0.307,0.293,0.292,0.153,0.094,north,6.0,No
2018/05/10,03:30,0.303,0.189,0.309,0.294,0.292,0.154,0.094,north-northwest,5.1,No
2018/05/10,03:40,0.304,0.190,0.306,0.293,0.292,0.154,0.093,north-northwest,5.0,No
2018/05/10,03:50,0.302,0.191,0.307,0.295,0.294,0.153,0.094,north-northwest,5.1,No
2018/05/10,04:00,0.304,0.189,0.309,0.293,0.292,0.154,0.094,north-northwest,5.4,No
2018/05/10,04:10,0.304,0.190,0.307,0.292,0.294,0.153,0.094,north-northwest,5.9,No
2018/05/10,04:20,0.303,0.190,0.306,0.294,0.294,0.153,0.094,north-northwest,6.3,No
2018/05/10,04:30,0.303,0.189,0.308,0.294,0.292,0.153,0.093,north-northwest,6.7,No
2018/05/10,04:40,0.303,0.191,0.308,0.293,0.296,0.154,0.094,north-northwest,5.7,No
2018/05/10,04:50,0.304,0.191,0.308,0.295,0.292,0.154,0.093,north-northwest,5.3,No
2018/05/10,05:00,0.304,0.190,0.309,0.295,0.293,0.153,0.094,north-northwest,4.7,Yes
2018/05/10,05:10,0.304,0.192,0.308,0.294,0.294,0.153,0.094,north-northwest,5.2,Yes
2018/05/10,05:20,0.304,0.191,0.309,0.295,0.292,0.155,0.094,north-northwest,4.7,Yes
2018/05/10,05:30,0.305,0.190,0.309,0.295,0.295,0.155,0.095,north-northwest,4.7,Yes
2018/05/10,05:40,0.304,0.192,0.309,0.296,0.294,0.155,0.095,north-northwest,4.1,Yes
2018/05/10,05:50,0.305,0.192,0.310,0.295,0.293,0.154,0.094,north-northwest,3.6,No
2018/05/10,06:00,0.303,0.191,0.309,0.293,0.295,0.153,0.096,north-northwest,2.9,No
2018/05/10,06:10,0.303,0.191,0.307,0.295,0.294,0.153,0.095,north-northwest,2.8,No
2018/05/10,06:20,0.305,0.190,0.308,0.296,0.292,0.154,0.094,north-northwest,3.0,No
2018/05/10,06:30,0.303,0.190,0.307,0.294,0.295,0.154,0.094,north-northwest,3.4,No
2018/05/10,06:40,0.304,0.190,0.308,0.295,0.292,0.154,0.094,north-northwest,3.4,No
2018/05/10,06:50,0.303,0.190,0.308,0.294,0.293,0.153,0.094,north,3.8,No
2018/05/10,07:00,0.303,0.191,0.306,0.294,0.293,0.154,0.093,north,4.0,No
2018/05/10,07:10,0.304,0.190,0.308,0.294,0.294,0.153,0.094,north-northwest,2.7,No
2018/05/10,07:20,0.303,0.190,0.307,0.294,0.291,0.154,0.094,north-northwest,3.2,Yes
2018/05/10,07:30,0.302,0.190,0.307,0.294,0.292,0.153,0.095,north,3.7,No
2018/05/10,07:40,0.303,0.190,0.308,0.294,0.293,0.153,0.094,north,4.3,No
2018/05/10,07:50,0.302,0.190,0.308,0.293,0.291,0.154,0.094,north-northwest,3.8,No
2018/05/10,08:00,0.305,0.190,0.308,0.295,0.294,0.154,0.094,north,3.8,Yes
2018/05/10,08:10,0.302,0.190,0.308,0.294,0.292,0.154,0.094,north-northwest,3.3,Yes
2018/05/10,08:20,0.305,0.191,0.307,0.296,0.293,0.153,0.094,north-northwest,2.9,No
2018/05/10,08:30,0.303,0.189,0.308,0.294,0.293,0.154,0.093,north,2.9,No
2018/05/10,08:40,0.302,0.190,0.307,0.296,0.293,0.154,0.094,north,2.3,No
2018/05/10,08:50,0.304,0.190,0.309,0.293,0.292,0.153,0.093,north,1.9,No
2018/05/10,09:00,0.303,0.190,0.307,0.293,0.294,0.154,0.094,north-northeast,2.4,No
2018/05/10,09:10,0.305,0.190,0.308,0.293,0.293,0.153,0.093,northeast,3.2,No
2018/05/10,09:20,0.303,0.190,0.309,0.293,0.295,0.154,0.095,north-northeast,2.6,No
2018/05/10,09:30,0.304,0.190,0.308,0.293,0.292,0.154,0.094,north-northeast,3.4,No
2018/05/10,09:40,0.302,0.190,0.309,0.295,0.294,0.153,0.093,northeast,3.4,No
2018/05/10,09:50,0.304,0.191,0.306,0.295,0.292,0.154,0.093,northeast,3.2,No
2018/05/10,10:00,0.303,0.190,0.310,0.294,0.294,0.153,0.094,northeast,2.9,No
2018/05/10,10:10,0.304,0.191,0.307,0.295,0.293,0.154,0.093,northeast,3.0,No
2018/05/10,10:20,0.305,0.190,0.310,0.295,0.296,0.154,0.093,northeast,2.1,No
2018/05/10,10:30,0.305,0.190,0.308,0.294,0.293,0.155,0.094,northeast,3.6,No
2018/05/10,10:40,0.304,0.189,0.309,0.294,0.296,0.153,0.093,northeast,2.8,Yes
2018/05/10,10:50,0.304,0.191,0.308,0.295,0.293,0.154,0.095,northeast,2.6,Yes
2018/05/10,11:00,0.306,0.190,0.309,0.294,0.294,0.154,0.093,east-northeast,1.7,Yes
2018/05/10,11:10,0.303,0.191,0.309,0.296,0.292,0.154,0.095,east-northeast,1.1,No
2018/05/10,11:20,0.306,0.191,0.310,0.294,0.296,0.154,0.093,east,1.0,No
2018/05/10,11:30,0.302,0.191,0.308,0.297,0.291,0.154,0.094,-,CALM,No
2018/05/10,11:40,0.305,0.191,0.309,0.294,0.295,0.154,0.094,south,1.6,Yes
2018/05/10,11:50,0.301,0.191,0.308,0.296,0.293,0.154,0.094,south,0.8,Yes
2018/05/10,12:00,0.304,0.193,0.310,0.294,0.294,0.154,0.094,south-southwest,3.4,Yes
2018/05/10,12:10,0.305,0.191,0.310,0.297,0.294,0.157,0.096,south-southwest,3.4,Yes
2018/05/10,12:20,0.306,0.192,0.310,0.300,0.297,0.155,0.096,south-southwest,3.2,No
2018/05/10,12:30,0.305,0.192,0.310,0.296,0.294,0.157,0.096,southwest,3.8,No
2018/05/10,12:40,0.305,0.192,0.310,0.299,0.296,0.156,0.096,southwest,3.8,No
2018/05/10,12:50,0.304,0.192,0.310,0.296,0.295,0.156,0.095,southwest,0.7,No
2018/05/10,13:00,0.304,0.191,0.311,0.299,0.295,0.155,0.095,-,CALM,No
2018/05/10,13:10,0.304,0.191,0.309,0.296,0.294,0.155,0.095,south-southeast,0.6,No
2018/05/10,13:20,0.304,0.190,0.310,0.295,0.295,0.155,0.094,east,0.9,No
2018/05/10,13:30,0.306,0.191,0.312,0.297,0.294,0.155,0.094,east,1.8,No
2018/05/10,13:40,0.304,0.191,0.309,0.296,0.296,0.154,0.095,east-southeast,0.7,No
2018/05/10,13:50,0.305,0.191,0.309,0.296,0.292,0.155,0.095,east-northeast,1.2,No
2018/05/10,14:00,0.305,0.190,0.308,0.295,0.297,0.155,0.095,northeast,1.6,No
2018/05/10,14:10,0.304,0.191,0.308,0.297,0.291,0.155,0.094,east,1.7,No
2018/05/10,14:20,0.304,0.191,0.309,0.294,0.297,0.154,0.094,east-northeast,1.7,No
2018/05/10,14:30,0.304,0.191,0.308,0.297,0.294,0.155,0.094,south-southeast,0.7,No
2018/05/10,14:40,0.304,0.190,0.310,0.296,0.293,0.155,0.094,east,1.3,No
2018/05/10,14:50,0.302,0.191,0.308,0.295,0.294,0.154,0.093,east,1.3,No
2018/05/10,15:00,0.304,0.189,0.309,0.295,0.291,0.154,0.094,east,1.1,No
2018/05/10,15:10,0.303,0.192,0.308,0.297,0.295,0.155,0.094,east-southeast,0.6,No
2018/05/10,15:20,0.305,0.190,0.308,0.296,0.293,0.155,0.095,east-southeast,1.5,No
2018/05/10,15:30,0.302,0.191,0.310,0.296,0.297,0.154,0.094,east-southeast,0.6,No
2018/05/10,15:40,0.307,0.191,0.310,0.297,0.293,0.156,0.094,north-northwest,4.9,No
2018/05/10,15:50,0.303,0.192,0.309,0.298,0.291,0.154,0.094,northwest,8.6,No
2018/05/10,16:00,0.303,0.190,0.308,0.296,0.294,0.155,0.094,north-northwest,9.2,No
2018/05/10,16:10,0.304,0.192,0.311,0.298,0.291,0.155,0.094,north-northwest,9.5,No
2018/05/10,16:20,0.304,0.191,0.311,0.295,0.295,0.155,0.094,northwest,6.7,No
2018/05/10,16:30,0.304,0.192,0.309,0.298,0.294,0.156,0.094,northwest,7.1,No
2018/05/10,16:40,0.305,0.192,0.310,0.297,0.293,0.153,0.095,north-northwest,6.3,No
2018/05/10,16:50,0.306,0.192,0.311,0.297,0.296,0.155,0.094,north-northwest,4.4,No
2018/05/10,17:00,0.304,0.193,0.312,0.297,0.293,0.155,0.094,north-northwest,4.5,No
2018/05/10,17:10,0.305,0.192,0.310,0.297,0.296,0.155,0.094,north-northwest,5.3,No
2018/05/10,17:20,0.305,0.192,0.311,0.296,0.295,0.155,0.094,north-northwest,4.5,No
2018/05/10,17:30,0.306,0.193,0.309,0.296,0.296,0.155,0.094,north-northwest,3.6,No
2018/05/10,17:40,0.305,0.192,0.311,0.298,0.296,0.155,0.094,north-northwest,4.3,No
2018/05/10,17:50,0.306,0.192,0.311,0.296,0.297,0.154,0.094,north-northwest,1.8,No
2018/05/10,18:00,0.307,0.192,0.310,0.297,0.295,0.155,0.094,northwest,1.1,No
2018/05/10,18:10,0.305,0.192,0.311,0.298,0.298,0.155,0.094,-,CALM,No
2018/05/10,18:20,0.306,0.192,0.310,0.297,0.294,0.156,0.095,west-northwest,2.6,No
2018/05/10,18:30,0.305,0.192,0.311,0.297,0.296,0.156,0.095,west-northwest,4.9,No
2018/05/10,18:40,0.307,0.191,0.311,0.297,0.296,0.155,0.094,northwest,5.3,No
2018/05/10,18:50,0.306,0.193,0.311,0.298,0.295,0.156,0.094,northwest,5.5,No
2018/05/10,19:00,0.305,0.193,0.313,0.299,0.296,0.156,0.095,west-northwest,5.7,No
2018/05/10,19:10,0.307,0.193,0.311,0.297,0.294,0.156,0.094,northwest,4.4,No
2018/05/10,19:20,0.305,0.193,0.310,0.297,0.295,0.155,0.094,north-northwest,2.9,No
2018/05/10,19:30,0.306,0.192,0.310,0.298,0.295,0.155,0.094,northwest,2.3,No
2018/05/10,19:40,0.306,0.193,0.310,0.297,0.295,0.156,0.095,west-northwest,8.1,No
2018/05/10,19:50,0.306,0.192,0.311,0.297,0.296,0.157,0.095,west-northwest,7.9,No
2018/05/10,20:00,0.306,0.192,0.312,0.298,0.296,0.156,0.094,west-northwest,5.6,No
2018/05/10,20:10,0.306,0.191,0.310,0.298,0.295,0.156,0.094,northwest,2.7,No
2018/05/10,20:20,0.306,0.192,0.310,0.297,0.296,0.156,0.094,north-northwest,1.1,No
2018/05/10,20:30,0.307,0.192,0.311,0.297,0.294,0.155,0.094,north-northwest,1.5,No
2018/05/10,20:40,0.305,0.192,0.310,0.298,0.294,0.156,0.094,north-northwest,2.2,No
2018/05/10,20:50,0.306,0.192,0.312,0.297,0.295,0.155,0.094,northwest,1.6,No
2018/05/10,21:00,0.306,0.191,0.312,0.299,0.296,0.155,0.094,north-northwest,0.6,No
2018/05/10,21:10,0.306,0.192,0.311,0.299,0.295,0.155,0.094,north-northwest,0.7,No
2018/05/10,21:20,0.305,0.193,0.310,0.297,0.295,0.154,0.095,northwest,1.5,No
2018/05/10,21:30,0.307,0.191,0.312,0.299,0.295,0.155,0.094,west-northwest,1.4,No
2018/05/10,21:40,0.305,0.192,0.311,0.298,0.295,0.154,0.095,west-southwest,0.8,No
2018/05/10,21:50,0.307,0.192,0.312,0.297,0.295,0.156,0.096,west,0.9,No
2018/05/10,22:00,0.307,0.191,0.311,0.299,0.293,0.155,0.094,northwest,1.7,No
2018/05/10,22:10,0.306,0.191,0.311,0.298,0.296,0.155,0.095,northwest,0.8,No
2018/05/10,22:20,0.306,0.192,0.311,0.296,0.294,0.156,0.094,west-northwest,2.3,No
2018/05/10,22:30,0.306,0.193,0.312,0.298,0.295,0.155,0.095,west-northwest,3.7,No
2018/05/10,22:40,0.308,0.191,0.311,0.298,0.294,0.155,0.095,northwest,2.7,No
2018/05/10,22:50,0.306,0.191,0.310,0.297,0.295,0.156,0.094,west-northwest,2.5,No
2018/05/10,23:00,0.307,0.192,0.313,0.297,0.294,0.156,0.094,west-northwest,2.8,No
2018/05/10,23:10,0.306,0.192,0.312,0.298,0.294,0.155,0.094,west-northwest,3.8,No
2018/05/10,23:20,0.304,0.192,0.311,0.299,0.295,0.156,0.094,west-northwest,4.3,No
2018/05/10,23:30,0.306,0.193,0.312,0.297,0.293,0.155,0.094,northwest,4.2,No
2018/05/10,23:40,0.307,0.193,0.311,0.297,0.294,0.156,0.095,west,2.7,No
2018/05/10,23:50,0.306,0.191,0.312,0.299,0.294,0.155,0.094,north-northwest,1.9,No
